Location: Prairie Dale
(45.6972°N, 104.5033°W)
Time: 22:22:27
(UTC+00:00)

DX 1 - Pass Details

Date: 08 July 2022
Orbit: 616 x 630 km, 98.4° (Epoch: 13 August)

Event Time Altitude Azimuth Distance (km) Brightness Sun altitude
Rises 05:18:38 0° 2° (N) 2,929 ? -17.8°
Reaches altitude 10° 05:21:11 10° 348° (NNW) 2,015 ? -18.0°
Maximum altitude 05:24:37 23° 296° (WNW) 1,337 ? -18.3°
Drops below altitude 10° 05:28:03 10° 244° (WSW) 1,997 ? -18.5°
Enters shadow 05:30:33 - 230° (SW) 2,890 ? -18.7°
